Погода в Петрозаводске

Погода в Петрозаводске : погода сейчас, прогноз погоды и архив. Всё, что Вы хотите узнать о погоде в Петрозаводске!

Хотите узнать прогноз погоды в Петрозаводске? Тогда Вам сюда: Погода в Петрозаводске

Поиск расширенной информации на нашем сайте:

Другие новости

Новости СМИ2

Главная страница сайта

Новости сайта

02.10.2013

Напоминаем, что на нашем новом сайте вы можете получить высокодетализированные прогнозы погоды по пунктам России, СНГ и мира (включающие важные для авиации метеовеличины, такие как направление и скорость ветра, видимость, явления погоды, количество и форма облачности, нижняя и верхняя граница облачности), а также ознакомиться с разнообразными материалами по авиационной метеорологии и подборкой полезных ссылок на эту тему.

Сайт Метеоцентр.Азия посвящён разработке технологий оптимизации авиаметеорологического обслуживания, включая проектирование и перспективное создание нескольких автоматизированных авиаметеорологических систем:
- система выпуска высокодетальных прогностических карт явлений погоды для нижнего воздушного пространства по России и ближнему зарубежью;
- система верификации прогнозов TAF (выпускаемых синоптиками официальных АМСГ РФ и ближнего зарубежья) и AUTOTAF (выпускаемых сайтом Метеоцентр.Азия) - выявление ошибок, онлайн-сопоставление с фактической погодой METAR, автоматическое внесение коррективов в прогнозы при резком отклонении фактической погоды от прогноза, подсчёт оправдываемости прогнозов по элементам и в целом;
- система обработки, анализа и отображения авиаметеорологической информации для применения провайдерами метеорологической информации.

Рекомендуем: консультация юриста бесплатно круглосуточно консультация юриста бесплатно круглосуточно онлайн

Погода в Петрозаводске - сегодня

Время (UTC), дата Ветер
(°,м/с) 
Видим.   Явления Облачность Т
(°С)
Тd
(°С)
f(%) Тe
(°С)
Pmin
(гПа)
dP
(гПа)
Po
(мм)
O2
(г/м3)
Тmin Tmax R s Состояние
почвы
00 18.01.17 240 (ЮЗ) 6-12{14}  50000 м    9/9 600 м средняя 
[Sc|As trans]
-3.7 -5 91 -8  1024.4  -2.1  758  310           
03 18.01.17 240 (ЮЗ) 6-12{15}  10 км  слаб. снег  10/8 180 м средняя 
[Frnb|As op]
-3.4 -4.7 91 -8  1021.8  -2.5  756  309  -6.4    0.4     
06 18.01.17 250 (З) 6-13{13}  25000 м  слаб. снег  10/8 300 м средняя 
[Sc|As op]
-2.8 -4.4 89 -7  1020.7  -1.1  755  308  -5.3    0.7  20  равномерный
сухой снег
100% 
09 18.01.17 270 (З) 3{13}  12000 м  слаб. снег  10/8 270 м средняя 
[Sc|As op]
-2 -3 93 -4  1022.1  1.5  756  307           
12 18.01.17 270 (З) 30000 м  слаб. снег  9/0 средняя 
[As op]
-1.7 -2.8 92 -4  1021.7  -0.4  756  307           
15 18.01.17 260 (З) 50000 м  {снег}  8/3 300 м средняя 
[Sc|Ac trans]
-2.1 -3.3 91 -4  1021.6  0.1  756  307      0.8     
18 18.01.17 250 (З) 4{10}  26000 м  слаб. снег  10/9 270 м средняя 
[Sc|As op]
-1.9 -3 92 -5  1019.4  -2.2  754  306    -1.5  0.5     
21 18.01.17 240 (ЮЗ) 3{11}  11000 м  {снег}  10/10 180 м 
[St]
-1.1 -1.6 96 -3  1016.2  -3  752  304           
00 19.01.17 240 (ЮЗ) 6-12{12}  24000 м  {снег}  10/9 300 м средняя 
[Sc|As op]
+0.1 -0.7 94 -3  1011.6  -4.5  748  301           
03 19.01.17 260 (З) 6-12{15}  28000 м  слаб. снег  10/8 300 м средняя 
[Sc|As op]
+0.1 -1.1 92 -3  1007.7  -3.8  745  300  -2.1    0.0     
06 19.01.17 260 (З) 6-13{14}  7000 м  слаб. снег  10/8 270 м средняя 
[Sc|As op]
+0.6 -0.3 94 -3  1006.5  -1.1  745  299  -1.9    0.1  18  равномерный
мокрый или
старый снег
100% 
09 19.01.17 260 (З) 6-12{14}  20000 м  {снег}  10/5 300 м средняя 
[Sc|As op]
+1.1 -0.2 91 -2  1006.6  0.1  745  299           
12 19.01.17 250 (З) 5-10{12}  20000 м  {снег}  10/10 330 м 
[Sc]
+1 -0.4 90 -2  1005.1  -1.6  743  298           
15 19.01.17 250 (З) 5-14{14}  50000 м    10/10 270 м 
[Sc]
+0.6 -0.6 92 -2  1000.5  -4.5  740  298      0.1     
18 19.01.17 250 (З) 7-16{16}  50000 м  {снег}  10/4 300 м средняя 
[Sc|As op]
+2 -0.5 83 -1  995.6  -4.8  736  295    +2.1  0.0     
21 19.01.17 280 (З) 9-15{16}  50000 м    10/4 300 м средняя 
[Sc|As trans]
+0.8 -3.6 72 -4  997.7  2.1  738  297           
00 20.01.17 300 (СЗ) 7-13{17}  50000 м    10/6 300 м средняя 
[Sc|As trans]
-0.5 -5.7 68 -4  1001.1  3.3  740  299           
03 20.01.17 300 (СЗ) 6-13{17}  50000 м    ясно 
-3.8 -10.7 59 -8  1005.6  4.2  744  305  -3.8    0.0     
06 20.01.17 280 (З) 8-12{13}  50000 м    ясно 
-5.9 -12.9 58 -11  1007.8  2.1  745  308  -5.9      18  равномерный
мокрый или
старый снег
100% 
09 20.01.17 280 (З) 7-13{13}  50000 м    ясно 
-6 -12.3 61 -11  1009.2  1.4  746  309           
12 20.01.17 260 (З) 4{13}  20000 м    1/0 верхняя 
[Ci fib]
-5.2 -10.1 68 -8  1008.4  -0.7  746  307           
15 20.01.17 250 (З) 5-10{11}  50000 м    ясно 
-5.8 -9.6 74 -10  1006.6  -1.9  744  307           
18 20.01.17 260 (З) 6-11{13}  50000 м    4/0 средняя 
[Ac trans]
-5.4 -8.3 80 -10  1004.9  -1.6  743  306    -5.1       
21 20.01.17 280 (З) 6-11{13}  50000 м    1/0 средняя 
[Ac trans]
-5.6 -8.1 83 -10  1005.1  0.2  743  307           
00 21.01.17 270 (З) 4{13}  50000 м    ясно 
-6.7 -8.8 85 -10  1005.8  0.6  744  308           
Время (UTC), дата Ветер
(°,м/с) 
Видим.   Явления Облачность Т
(°С)
Тd
(°С)
f(%) Тe
(°С)
Pmin
(гПа)
dP
(гПа)
Po
(мм)
O2
(г/м3)
Тmin Tmax R s Состояние
почвы

Для получения пояснительной информации подведите курсор к названию столбца.

ПОГОДА в Петрозаводске - архив

Всё, что Вы хотите узнать о погоде в Петрозаводске - удобно и подробно!

Выберите нужную дату (начиная с 1 января 2015* года) и нажмите кнопку "Найти".
Будут отображены архивные сводки погоды по пункту Петрозаводск, начиная с указанной даты.


Отображать данные в формате CSV (для использования в таблицах Excel)


Внимание! Наш архив погоды предназначен исключительно для личного некоммерческого использования в познавательных целях. Если Вам необходимы официальные справки о состоянии погоды (для производственных, юридических, коммерческих и т.п. целей), обращайтесь в органы Росгидромета.

*Примечание: данная дата относится к архиву по метеостанциям СССР (Россия, СНГ, Балтия).
Архив по метеостанциям Зарубежной Европы и Азии (кроме Китая) хранится 10 дней, по другим регионам земного шара (Китай, Африка, Америка, Австралия, Океания) - 1 день.

Петрозаводск - район местоположения метеостанции


Название, широта, долгота, высота метеостанции:
Петрозаводск 61.8°ш. 34.3°д. 110 м над ур. моря [Российская Федерация]

Дополнительная информация

В oтличие oт бoльшинства пoгoдных сайтoв мы публикуем пoдрoбную метеoинфoрмацию в детальнoм прoфессиoнальнoм фoрмате.

Характеристики температуры и влажнoсти вoздуха измеряются на высoте 2 м в тени вдали oт зданий и деревьев.
Скoрoсть ветра измеряется на высoте 10 м (на урoвне рoста челoвека скoрoсть ветра ниже в 1.5-2 раза). Если метеoстанция нахoдится в гoрoде или в лесу, тo скoрoсть ветра занижена на 2-4 м/с пo сравнению с oткрытым местoм. Скoрoсть ветра над акватoриями крупных рек и oзёр, а также на вершинах хoлмoв на 2-5 м/с выше, чем в oбычных услoвиях.
Атмoсфернoе давление в разных тoчках местнoсти мoжет значительнo oтличаться oт давления на метеoстанции, в зависимoсти oт услoвий рельефа (при пoдъёме на 10 м давление пoнижается примернo на 1 мм рт.ст.).